Florala, AL

3:53 PM CST on February 20, 2018 (GMT -0600)
Florala

Weather History for K0J4 - April, 2013

Change the Weather History Date:

Wednesday, April 3, 2013

  Actual Average (KCEW) Record (KCEW)
Temperature  
Mean Temperature 56 °F -  
Max Temperature 59 °F 76 °F 90 °F (2006)
Min Temperature 53 °F 49 °F 33 °F (2004)
Degree Days  
Heating Degree Days 9    
Growing Degree Days 6 (Base 50)    
Moisture  
Dew Point 52 °F    
Average Humidity 84    
Maximum Humidity 94    
Minimum Humidity 55    
Precipitation  
Precipitation 0.33 in - - ()
Sea Level Pressure  
Sea Level Pressure 30.01 in    
Wind  
Wind Speed 5 mph (ENE)    
Max Wind Speed 16 mph    
Max Gust Speed 34 mph    
Visibility 9 miles    
Events Thunderstorm    
Averages and records for this station are not official NWS values.
T = Trace of Precipitation, MM = Missing Value Source: NWS Daily Summary

Daily Weather History Graph

Daily Weather History Graph

Search for Another Location

Airport or City:

Trip Planner

Search our weather history database for the weather conditions in past years. The results will help you decide how hot, cold, wet, or windy it might be!

Date:

Astronomy

Apr. 03, 2013 Rise Set
Actual Time 6:31 AM CDT 7:05 PM CDT
Civil Twilight 6:06 AM CDT 7:30 PM CDT
Nautical Twilight 5:38 AM CDT 7:59 PM CDT
Astronomical Twilight 5:09 AM CDT 8:28 PM CDT
Moon 1:46 AM CDT (4/3) 12:41 PM CDT (4/3)
Length of Visible Light 13h 23m
Length of Day
12h 34m
Last Quarter, 44% of the Moon is Illuminated
Apr 3
Last Quarter
Apr 10
New
Apr 18
First Quarter
Apr 25
Full
May 2
Last Quarter

Hourly Weather History & Observations

Time (CDT) Temp. Dew Point Humidity Pressure Visibility Wind Dir Wind Speed Gust Speed Precip Events Conditions
12:58 AM 57.0 °F 51.1 °F 81% 30.05 in 10.0 mi Calm Calm - N/A   Clear
1:58 AM 57.0 °F 50.0 °F 77% 30.02 in 10.0 mi Calm Calm - N/A   Clear
2:58 AM 59.0 °F 50.0 °F 72% 30.01 in 10.0 mi Calm Calm - N/A   Clear
3:58 AM 57.9 °F 48.9 °F 72% 29.99 in 10.0 mi NE 4.6 mph - N/A   Clear
4:58 AM 57.9 °F 50.0 °F 75% 30.02 in 10.0 mi North 3.5 mph - N/A   Overcast
5:58 AM 57.0 °F 48.9 °F 74% 30.02 in 10.0 mi ENE 8.1 mph - N/A   Clear
6:58 AM 57.0 °F 46.0 °F 67% 30.04 in 10.0 mi ENE 6.9 mph - N/A   Clear
7:58 AM 57.9 °F 45.0 °F 62% 30.05 in 10.0 mi ENE 6.9 mph - N/A   Scattered Clouds
8:58 AM 59.0 °F 43.0 °F 55% 30.09 in 10.0 mi Calm Calm - N/A   Overcast
9:58 AM 57.9 °F 48.0 °F 70% 30.09 in 10.0 mi Calm Calm - N/A   Overcast
10:58 AM 55.9 °F 50.0 °F 80% 30.09 in 9.0 mi NE 4.6 mph - 0.02 in   Overcast
11:58 AM 55.0 °F 50.0 °F 83% 30.11 in 7.0 mi NNE 4.6 mph - 0.08 in   Overcast
12:50 PM 53.6 °F 51.8 °F 94% 30.12 in 6.0 mi North 4.6 mph - 0.07 in Thunderstorm Overcast
12:58 PM 54.0 °F 50.0 °F 86% 30.12 in 6.0 mi NNE 5.8 mph - 0.08 in Thunderstorm Overcast
1:05 PM 53.6 °F 51.8 °F 94% 30.11 in 5.0 mi North 5.8 mph - 0.01 in   Overcast
1:58 PM 53.1 °F 50.0 °F 89% 30.09 in 5.0 mi NE 5.8 mph - 0.10 in   Overcast
2:58 PM 54.0 °F 52.0 °F 93% 30.05 in 5.0 mi ENE 6.9 mph - 0.05 in   Overcast
3:13 PM 53.6 °F 51.8 °F 94% 30.02 in 6.0 mi East 5.8 mph - N/A   Overcast
3:37 PM 53.6 °F 51.8 °F 94% 29.86 in 5.0 mi ESE 16.1 mph 34.5 mph N/A   Overcast
3:58 PM 55.9 °F 54.0 °F 93% 29.89 in 8.0 mi East 9.2 mph 20.7 mph N/A   Mostly Cloudy
4:03 PM 57.2 °F 53.6 °F 88% 29.91 in 10.0 mi ESE 9.2 mph 17.3 mph N/A   Mostly Cloudy
4:20 PM 57.2 °F 55.4 °F 94% 29.91 in 10.0 mi ESE 9.2 mph - N/A   Scattered Clouds
4:58 PM 59.0 °F 55.9 °F 90% 29.88 in 10.0 mi East 10.4 mph - N/A   Partly Cloudy
5:58 PM 59.0 °F 57.0 °F 93% 29.89 in 10.0 mi NE 9.2 mph - N/A   Scattered Clouds
6:12 PM 59.0 °F 57.2 °F 94% 29.90 in 9.0 mi ENE 10.4 mph - N/A   Mostly Cloudy
6:58 PM 59.0 °F 55.0 °F 87% 29.93 in 10.0 mi ENE 12.7 mph - N/A   Overcast
7:58 PM 59.0 °F 55.9 °F 90% 29.97 in 10.0 mi ENE 12.7 mph - N/A   Overcast
8:58 PM 59.0 °F 55.0 °F 87% 29.99 in 10.0 mi ENE 10.4 mph 17.3 mph N/A   Overcast
9:58 PM 57.9 °F 55.0 °F 90% 30.00 in 9.0 mi ENE 8.1 mph - N/A   Overcast
10:58 PM 59.0 °F 55.9 °F 90% 29.99 in 10.0 mi NE 6.9 mph - N/A   Overcast
11:58 PM 59.0 °F 57.0 °F 93% 29.98 in 6.0 mi ENE 6.9 mph - N/A   Overcast